Location: Banff
(51.1670°N, 115.5670°W)
Time: 19:44:14
(UTC-07:00)

Daily predictions for brighter satellites

Satellite Brightness Start Highest point End
(mag) Time Altitude Azimuth Time Altitude Azimuth Time Altitude Azimuth
Cosmos 1943 Rocket 2.4 17:02:48 10° SSW 17:08:20 60° ESE 17:13:55 10° NE
IRAS Rocket 4.5 17:03:45 10° SE 17:08:58 47° ENE 17:14:13 10° N
Okean 2 Rocket 4.5 17:05:04 10° NNW 17:09:22 44° W 17:13:36 10° SSW
Okean 1-7 4.2 17:07:21 10° SSW 17:11:34 46° WNW 17:15:50 10° N
CENTAUR R/B 3.8 17:06:08 10° WNW 17:12:21 32° N 17:19:17 10° ENE
Lacrosse 5 3.7 17:08:26 10° WNW 17:13:04 37° SW 17:17:40 10° SSE
Cosmos 2285 Rocket 4.2 17:08:21 10° NNW 17:14:42 82° WSW 17:21:01 10° SSE
SL-16 R/B 3.9 17:12:21 10° N 17:17:59 37° WNW 17:23:33 10° SW
Cosmos 1607 4.0 17:13:28 10° NW 17:20:01 76° NE 17:26:29 10° SE
Cosmos 1300 Rocket 3.6 17:15:44 10° N 17:20:09 88° E 17:24:34 10° S
Aureole 1 Rocket 4.1 17:15:16 10° NNW 17:20:14 46° ENE 17:26:39 10° SE
YAOGAN 1 3.6 17:19:28 10° ESE 17:22:56 24° ENE 17:26:25 10° N
USA 238 DEB 4.1 17:16:56 10° NW 17:23:45 48° NNE 17:30:39 10° ESE
USA 238 4.1 17:17:02 10° NW 17:23:51 48° NNE 17:30:45 10° ESE
Nadezhda 4 Rocket 4.1 17:17:52 10° N 17:24:02 83° W 17:30:13 10° S
COSMO-SKYMED 1 4.5 17:28:01 10° ENE 17:29:40 12° E 17:31:19 10° ESE
CSL-04 Debris 4.2 17:25:09 10° SE 17:30:24 57° ENE 17:35:42 10° N
Cosmos 2263 Rocket 4.2 17:35:06 10° N 17:35:33 10° N 17:35:58 10° NNE
SOZ 4.5 17:30:58 10° W 17:35:52 85° NNW 17:37:59 13° E
Meteor 1-28 Rocket 4.4 17:35:38 10° NE 17:38:44 24° E 17:41:49 10° SSE
Cosmos 1743 3.7 17:35:50 10° NNE 17:39:07 26° ENE 17:42:24 10° SE
Cosmos 1437 Rocket 4.3 17:37:22 10° NNW 17:40:55 37° W 17:44:25 10° SSW
ATLAS CENTAUR R/B 3.6 17:37:52 10° WNW 17:41:20 30° WSW 17:44:57 10° S
CZ-2C R/B 3.3 17:39:51 10° S 17:44:57 56° W 17:50:04 10° NNW
Okean 1 4.0 17:41:47 10° SSE 17:45:22 33° E 17:48:57 10° NNE
Cosmos 1975 Rocket 3.7 17:42:27 10° SSE 17:46:30 35° E 17:50:36 10° NNE
Okean 1 Rocket 3.3 17:42:41 10° NNW 17:47:11 79° W 17:51:40 10° S
Cosmos 2369 Rocket 2.8 17:44:26 10° SW 17:49:55 53° NW 17:55:25 10° NNE
NOSS 3-1 (C) 3.7 17:45:17 10° SW 17:51:11 72° NW 17:57:33 12° NE
Cosmos 1975 2.9 17:47:43 10° N 17:51:41 52° ENE 17:55:37 10° SSE
Cosmos 2082 4.3 17:48:58 10° NNW 17:54:05 34° NE 17:59:08 10° ESE
CSL-04 Rocket 3.7 17:49:13 10° SSE 17:54:38 88° WSW 18:00:11 10° NNW
NOSS 3-2 (A) 4.2 17:48:55 10° NW 17:55:47 48° NNE 18:03:23 10° ESE
ISS -3.7 17:53:11 10° W 17:56:30 78° SSW 17:59:11 15° ESE
SMAP 3.0 17:51:53 10° SSE 17:56:31 81° ENE 18:01:14 10° NNW
SPOT 3 Rocket 4.2 17:52:10 10° SE 17:56:46 33° ENE 18:01:21 10° N
Cosmos 1655 Rocket 4.1 17:50:36 10° N 17:56:55 61° ENE 18:03:14 10° SSE
Cosmos 1634 Rocket 4.0 17:52:08 10° S 17:58:18 73° E 18:04:34 10° NNE
NOSS 3-2 (C) 4.3 17:53:12 10° NW 17:59:56 44° NNE 18:06:37 13° E
Gblst 52 Del rocket 4.2 17:55:06 10° W 18:00:39 86° N 18:05:25 16° E
Cosmos 1092 Rocket 4.5 17:54:29 10° NNW 18:00:39 66° W 18:06:50 10° S
CZ-4 R/B 1.2 17:57:13 10° SSE 18:01:03 65° ENE 18:04:58 10° N
Cosmos 1674 Rocket 4.1 17:56:48 10° SSW 18:01:04 59° WNW 18:05:21 10° N
FENGYUN 3A 4.2 17:57:14 10° SE 18:02:04 35° ENE 18:06:55 10° N
Cosmos 1271 Rocket 3.0 18:01:30 10° N 18:05:08 42° ENE 18:08:45 10° SE
ALOS 2.8 18:01:59 10° SE 18:06:11 34° ENE 18:10:24 10° N
Cosmos 1378 Rocket 3.7 18:04:30 10° SSW 18:08:56 82° WNW 18:13:25 10° N
Cosmos 1500 3.8 18:05:43 10° NNW 18:09:29 58° W 18:13:10 10° S
NOAA 15 4.5 18:04:45 10° SSE 18:09:58 72° ENE 18:15:13 10° NNW
Cosmos 2219 3.3 18:04:21 10° NNW 18:10:00 82° WSW 18:15:37 10° SSE
Cosmos 2227 Rocket 2.4 18:04:33 10° NNW 18:10:05 49° NE 18:15:34 10° SE
Cosmos 1484 Rocket 3.2 18:07:19 10° S 18:11:19 68° W 18:15:21 10° NNW
ATLAS 2AS CENTAUR R/B 3.6 18:05:26 10° S 18:12:26 37° ESE 18:17:21 19° ENE
USA 161 3.2 18:10:24 10° N 18:12:50 31° WNW 18:15:24 10° SW
METEOR-M 4.1 18:10:01 10° SSE 18:15:17 65° ENE 18:20:35 10° N
NOSS 2-3 (E) 4.2 18:10:49 10° SSW 18:15:24 50° ESE 18:18:38 22° ENE
Cosmos 2278 Rocket 4.4 18:13:58 10° NW 18:15:48 11° NNW 18:17:38 10° N
AQUARIUS 4.5 18:11:57 10° S 18:16:25 69° WSW 18:20:56 10° NNW
Cosmos 389 Rocket 2.3 18:13:24 10° N 18:16:57 73° ENE 18:20:24 10° SSE
CZ-4 R/B 4.3 18:13:39 10° SSE 18:17:46 66° ENE 18:21:53 10° N
SKYMED 2 4.3 18:16:34 24° NE 18:18:15 32° E 18:22:08 10° SSE
Cosmos 158 Rocket 4.1 18:13:24 10° NNW 18:18:27 47° ENE 18:23:19 10° SE
Meteor 2-9 Rocket 4.3 18:14:28 10° N 18:19:55 47° ENE 18:25:11 10° SE
ATLAS 3B R/B 2.5 18:13:15 10° NW 18:20:03 74° NE 18:26:36 10° SE
Cosmos 2026 Rocket 4.3 18:13:45 10° NNW 18:20:09 74° W 18:26:28 10° S
Cosmos 2266 Rocket 4.1 18:15:21 10° N 18:21:11 46° ENE 18:27:01 10° SE
NOAA 12 4.2 18:18:04 10° SE 18:23:07 49° ENE 18:28:12 10° N
Cosmos 1818 3.5 18:19:54 10° SSW 18:25:18 75° SE 18:28:42 24° NE
Cosmos 1656 Rocket 3.7 18:20:05 10° SSW 18:25:37 84° WNW 18:30:07 16° NNE
Cosmos 1269 Rocket 4.5 18:21:59 10° NNW 18:26:58 38° NE 18:30:03 21° ESE
Meteor 1-18 Rocket 4.2 18:21:33 10° SSW 18:27:07 87° W 18:32:50 10° NNE
NOSS 3-1 (A) 3.8 18:21:40 10° WSW 18:27:36 62° NW 18:32:37 19° NE
BREEZE-M DEB (TANK) 3.4 18:25:32 10° W 18:28:02 60° S 18:30:46 21° ESE
Meteor 1-13 Rocket 4.4 18:26:09 10° SSE 18:31:27 46° E 18:35:52 15° NNE
Cosmos 1898 Rocket 3.5 18:28:04 10° SSW 18:33:17 89° WNW 18:37:25 17° NNE
ERS-2 2.0 18:32:07 10° SSE 18:35:45 71° ENE 18:39:26 10° NNW
Cosmos 1812 4.4 18:32:21 10° SW 18:35:55 34° WNW 18:39:30 10° N
Ariane Rocket 4.1 18:31:55 10° S 18:36:47 46° W 18:41:40 10° NNW
Cosmos 2297 Rocket 2.1 18:32:06 10° NNW 18:37:45 63° NE 18:43:21 10° SE
Cosmos 1666 2.7 18:38:25 10° NNW 18:42:12 79° W 18:45:57 10° S
Cosmos 2298 Rocket 3.9 18:38:15 10° SSW 18:43:35 79° ESE 18:46:53 24° NNE
Meteor 2-4 Rocket 3.8 18:42:05 10° SSE 18:47:18 47° E 18:49:18 32° NE
Cosmos 1455 Rocket 3.2 18:43:45 10° NNW 18:48:13 78° W 18:52:37 10° S
Cosmos 1048 Rocket 4.0 18:44:36 10° NNW 18:49:59 65° ENE 18:54:58 12° SE
NOSS 2-3 (C) 3.9 18:46:04 10° SW 18:50:53 83° SE 18:53:13 36° NE
Cosmos 1937 Rocket 3.4 18:45:47 10° SSW 18:50:59 87° WNW 18:54:04 25° NNE
Cosmos 489 Rocket 4.4 18:44:49 10° S 18:51:06 69° ESE 18:55:05 24° NNE
Cosmos 1544 Rocket 3.9 18:47:26 10° NNW 18:51:49 67° W 18:56:07 10° S
Cosmos 1943 Rocket 3.6 18:47:23 10° WSW 18:52:27 33° NW 18:56:55 13° NNE
MONITOR-E 4.3 18:50:16 10° S 18:53:18 71° WSW 18:56:22 10° NNW
YAOGAN 1 3.6 18:54:38 10° S 18:58:48 47° W 19:03:01 10° NNW
Meteor 1-19 Rocket 4.1 18:55:10 10° S 19:00:50 83° E 19:05:52 14° NNE
CENTAUR R/B 3.3 18:57:40 10° NW 19:04:51 47° NNE 19:07:15 38° ENE
EO 1 Del DPAF 3.5 19:05:58 57° S 19:05:58 57° S 19:09:06 10° S
COSMO-SKYMED 1 2.4 19:05:10 45° NNE 19:06:29 89° E 19:10:50 10° SSW
Cosmos 2369 4.4 19:03:31 10° S 19:07:45 36° SE 19:07:45 36° SE
COSMOS 2455 4.4 19:04:29 10° NNW 19:08:52 20° NNE 19:09:02 20° NNE
Cosmos 2278 4.5 19:06:07 10° S 19:10:05 34° SE 19:10:05 34° SE
USA 238 DEB 4.1 19:08:03 10° NW 19:15:03 64° SW 19:22:07 10° SSE
USA 238 4.1 19:08:09 10° NW 19:15:09 64° SW 19:22:13 10° SSE
Cosmos 724 4.3 19:12:38 10° NW 19:18:27 80° SW 19:21:19 32° SSE
Cosmos 2263 Rocket 3.9 19:17:32 10° NNW 19:19:51 18° N 19:19:51 18° N
FengYun 1-2 T 4.1 19:21:48 10° SSE 19:27:26 86° ENE 19:33:08 10° NNW
ISS -1.4 19:29:56 10° W 19:31:51 22° WSW 19:31:51 22° WSW
DMSP B5D1-3 4.4 19:33:02 80° N 19:33:19 89° WNW 19:38:28 10° SSW
SJ 16-02 3.3 19:29:03 10° S 19:30:23 19° S 19:30:23 19° S
Nadezhda 2 Rocket 4.4 19:28:52 10° N 19:35:10 88° E 19:41:33 10° S
Cosmos 2369 Rocket 4.4 19:31:46 10° WNW 19:35:17 17° NNW 19:37:58 12° N
NOSS 2-3 (D) 4.4 19:30:49 10° WSW 19:35:40 59° NW 19:36:29 53° N
Cosmos 2082 4.2 19:32:59 10° NW 19:38:29 56° WSW 19:42:48 16° S
ALOS 3.8 19:39:19 10° SSW 19:43:36 35° W 19:47:56 10° NNW
Meteor 1-23 Rocket 4.1 19:39:47 10° S 19:45:25 85° SSW 19:45:25 85° SSW
NOSS 3-2 (A) 4.2 19:39:51 10° NW 19:47:10 69° SW 19:51:25 30° SSE
NOSS 3-2 (C) 4.0 19:44:11 10° NW 19:51:33 79° SW 19:54:07 47° SSE
Gblst 52 Del rocket 4.4 19:46:45 10° WNW 19:52:23 69° SSW 19:52:23 69° SSW
Cosmos 2227 Rocket 3.6 19:48:54 10° NW 19:54:00 36° WSW 19:59:05 10° S
ATLAS 2AS CENTAUR R/B 3.1 19:55:03 10° SW 20:03:01 76° NW 20:04:49 58° NNE
ATLAS 3B R/B 4.1 20:04:30 10° NW 20:10:13 31° WSW 20:15:49 10° S
Cosmos 2297 Rocket 4.1 20:16:45 10° NW 20:21:23 26° WSW 20:26:00 10° SSW
CENTAUR R/B 3.5 20:48:28 10° NW 20:54:27 58° WNW 20:54:27 58° WNW
